Tracking 25710 objects as of 6-Jul-2022
HD Live streaming from Space Station
objects crossing your sky now

TITAN 3A (TRUSS)

Track TITAN 3A (TRUSS) now!
10-day predictions
TITAN 3A (TRUSS) is classified as:


NORAD ID: 1001
Int'l Code: 1965-008A
Perigee: 2,770.4 km
Apogee: 2,802.2 km
Inclination: 32.1 °
Period: 145.3 minutes
Semi major axis: 9157 km
RCS: 10.9612 m2 (large)
Launch date: February 11, 1965
Source: United States (US)
Launch site: AIR FORCE EASTERN TEST RANGE (AFETR)
aabbcc
Your satellite tracking list
Your tracking list is empty




NASA's NSSDC Master Catalog

Two Line Element Set (TLE):
1 01001U 65008A   22187.56849075  .00000013  00000-0  58598-3 0  9997
2 01001  32.1488 301.8765 0017368  63.9497 296.2787  9.90724812 78506
Source of the keplerian elements: AFSPC